CST,Max TemperatureF,Mean TemperatureF,Min TemperatureF,Max Dew PointF,MeanDew PointF,Min DewpointF,Max Humidity, Mean Humidity, Min Humidity, Max Sea Level PressureIn, Mean Sea Level PressureIn, Min Sea Level PressureIn, Max VisibilityMiles, Mean VisibilityMiles, Min VisibilityMiles, Max Wind SpeedMPH, Mean Wind SpeedMPH, Max Gust SpeedMPH,PrecipitationIn, CloudCover, Events, WindDirDegrees
2013-1-1,21,14,8,11,6,4,87,72,50,30.40,30.34,30.26,,,,10,5,17,0.00,,,344
2013-1-2,35,21,7,22,15,4,87,75,59,30.32,30.25,30.16,,,,10,4,,0.00,,,215
2013-1-3,35,25,12,27,20,11,96,81,64,30.48,30.40,30.29,,,,12,3,18,0.00,,,297
2013-1-4,39,26,12,23,18,11,96,78,49,30.45,30.38,30.29,,,,12,4,17,0.00,,,196
2013-1-5,42,32,23,33,26,19,85,75,65,30.28,30.18,30.09,,,,14,7,21,0.00,,,204
2013-1-6,36,28,19,20,18,14,85,70,50,30.41,30.34,30.18,,,,14,8,24,0.00,,,274
2013-1-7,45,35,25,26,23,18,75,62,48,30.33,30.21,30.09,,,,15,8,20,0.00,,,184
2013-1-8,51,42,34,32,28,25,76,65,44,30.20,30.08,29.99,,,,12,8,,0.00,,,194
2013-1-9,54,40,26,34,27,22,89,67,38,30.47,30.39,30.22,,,,7,1,,0.00,,,93
2013-1-10,44,40,36,44,35,26,100,83,55,30.41,30.08,29.77,,,,10,6,17,0.19,,,114
2013-1-11,57,52,46,49,46,44,100,79,62,29.77,29.67,29.59,,,,14,9,22,0.00,,,177
2013-1-12,55,40,21,44,18,12,79,61,43,30.13,30.03,29.73,,,,16,9,26,0.00,,,316
2013-1-13,25,18,12,12,7,3,84,64,53,30.44,30.28,30.13,,,,14,7,21,0.00,,,315
2013-1-14,30,19,8,13,8,4,84,69,41,30.60,30.52,30.48,,,,5,1,,0.00,,,82
2013-1-15,30,20,10,16,11,8,92,76,40,30.48,30.37,30.24,,,,9,1,,0.00,,,152
2013-1-16,45,30,14,31,20,10,88,69,45,30.22,30.10,29.99,,,,12,6,17,0.00,,,217
2013-1-17,43,34,24,31,23,20,88,72,41,30.52,30.44,30.23,,,,8,5,,0.00,,,334
2013-1-18,57,42,26,31,27,21,84,60,33,30.45,30.21,30.02,,,,18,10,32,0.00,,,192
2013-1-19,60,47,34,31,28,18,79,54,28,30.28,30.05,29.96,,,,12,8,20,0.00,,,254
2013-1-20,32,24,16,12,8,5,77,54,40,30.47,30.41,30.31,,,,12,7,20,0.00,,,353
2013-1-21,16,14,12,9,-1,-6,74,53,41,30.54,30.49,30.45,,,,14,7,21,0.00,,,319
2013-1-22,23,18,12,8,3,-3,77,58,46,30.54,30.46,30.40,,,,7,3,,0.00,,,64
2013-1-23,43,26,10,19,12,7,88,63,38,30.53,30.35,30.24,,,,12,5,18,0.00,,,326
2013-1-24,23,15,7,6,1,-3,67,53,44,30.66,30.50,30.30,,,,15,10,22,0.00,,,82
2013-1-25,48,32,16,20,14,7,71,51,30,30.31,30.24,30.17,,,,9,3,,0.00,,,291
2013-1-26,41,30,18,21,14,7,72,54,36,30.42,30.32,30.20,,,,10,6,,0.00,,,99
2013-1-27,57,44,33,52,38,18,100,84,52,30.18,29.95,29.79,,,,13,10,22,0.17,,,151
2013-1-28,72,58,45,58,52,44,97,83,55,29.91,29.80,29.67,,,,15,5,22,0.02,,,166
2013-1-29,66,50,34,58,46,32,97,88,75,29.66,29.58,29.50,,,,17,10,24,1.16,,,323
2013-1-30,34,29,21,32,21,14,92,77,63,30.00,29.75,29.49,,,,16,10,31,0.30,,,312
2013-1-31,21,13,5,14,3,-6,72,61,54,30.56,30.25,30.01,,,,17,8,29,0.00,,,305